owner,sensor,date,latitude,longitude,sea_surface_height_above_sea_level,qcFlag 
TCOON,ioos:station:TCOON:057:1,2017-01-01T00:18:00Z,28.4460,-96.3961,3.836,1111122 
TCOON,ioos:station:TCOON:057:1,2017-01-01T01:18:00Z,28.4460,-96.3961,3.871,1111122 
TCOON,ioos:station:TCOON:057:1,2017-01-01T02:18:00Z,28.4460,-96.3961,3.885,1111122 
TCOON,ioos:station:TCOON:057:1,2017-01-01T03:18:00Z,28.4460,-96.3961,3.908,1111122 
TCOON,ioos:station:TCOON:057:1,2017-01-01T04:30:00Z,28.4460,-96.3961,3.914,1111122 
TCOON,ioos:station:TCOON:057:1,2017-01-01T05:24:00Z,28.4460,-96.3961,3.902,1111122 
TCOON,ioos:station:TCOON:057:1,2017-01-01T06:18:00Z,28.4460,-96.3961,3.904,1111122 
TCOON,ioos:station:TCOON:057:1,2017-01-01T07:18:00Z,28.4460,-96.3961,3.887,1111122 
TCOON,ioos:station:TCOON:057:1,2017-01-01T08:18:00Z,28.4460,-96.3961,3.886,1111122 
TCOON,ioos:station:TCOON:057:1,2017-01-01T09:24:00Z,28.4460,-96.3961,3.874,1111122 
TCOON,ioos:station:TCOON:057:1,2017-01-01T10:18:00Z,28.4460,-96.3961,3.851,1111122 
TCOON,ioos:station:TCOON:057:1,2017-01-01T11:18:00Z,28.4460,-96.3961,3.827,1111122 
TCOON,ioos:station:TCOON:057:1,2017-01-01T12:18:00Z,28.4460,-96.3961,3.804,1111122 
TCOON,ioos:station:TCOON:057:1,2017-01-01T13:18:00Z,28.4460,-96.3961,3.768,1111122 
TCOON,ioos:station:TCOON:057:1,2017-01-01T14:18:00Z,28.4460,-96.3961,3.703,1111122 
TCOON,ioos:station:TCOON:057:1,2017-01-01T15:18:00Z,28.4460,-96.3961,3.718,1111122 
TCOON,ioos:station:TCOON:057:1,2017-01-01T16:18:00Z,28.4460,-96.3961,3.694,1111122 
TCOON,ioos:station:TCOON:057:1,2017-01-01T17:18:00Z,28.4460,-96.3961,3.695,1111122 
TCOON,ioos:station:TCOON:057:1,2017-01-01T18:24:00Z,28.4460,-96.3961,3.647,1111122 
TCOON,ioos:station:TCOON:057:1,2017-01-01T19:18:00Z,28.4460,-96.3961,3.641,1111122 
TCOON,ioos:station:TCOON:057:1,2017-01-01T20:18:00Z,28.4460,-96.3961,3.643,1111122 
TCOON,ioos:station:TCOON:057:1,2017-01-01T21:18:00Z,28.4460,-96.3961,3.664,1111122 
TCOON,ioos:station:TCOON:057:1,2017-01-01T22:18:00Z,28.4460,-96.3961,3.69,1111122 
TCOON,ioos:station:TCOON:057:1,2017-01-02T00:18:00Z,28.4460,-96.3961,3.752,1111122 
TCOON,ioos:station:TCOON:057:1,2017-01-02T01:18:00Z,28.4460,-96.3961,3.788,1111122 
TCOON,ioos:station:TCOON:057:1,2017-01-02T02:18:00Z,28.4460,-96.3961,3.812,1111122 
TCOON,ioos:station:TCOON:057:1,2017-01-02T03:18:00Z,28.4460,-96.3961,3.847,1111122 
TCOON,ioos:station:TCOON:057:1,2017-01-02T04:18:00Z,28.4460,-96.3961,3.858,1111122 
TCOON,ioos:station:TCOON:057:1,2017-01-02T05:18:00Z,28.4460,-96.3961,3.875,1111122 
TCOON,ioos:station:TCOON:057:1,2017-01-02T06:18:00Z,28.4460,-96.3961,3.88,1111122 
TCOON,ioos:station:TCOON:057:1,2017-01-02T07:18:00Z,28.4460,-96.3961,3.875,1111122 
TCOON,ioos:station:TCOON:057:1,2017-01-02T08:18:00Z,28.4460,-96.3961,3.89,1111122 
TCOON,ioos:station:TCOON:057:1,2017-01-02T09:18:00Z,28.4460,-96.3961,3.875,1111122 
TCOON,ioos:station:TCOON:057:1,2017-01-02T10:18:00Z,28.4460,-96.3961,3.856,1111122 
TCOON,ioos:station:TCOON:057:1,2017-01-02T11:18:00Z,28.4460,-96.3961,3.829,1111122 
TCOON,ioos:station:TCOON:057:1,2017-01-02T12:18:00Z,28.4460,-96.3961,3.817,1111122 
TCOON,ioos:station:TCOON:057:1,2017-01-02T13:24:00Z,28.4460,-96.3961,3.779,1111122 
TCOON,ioos:station:TCOON:057:1,2017-01-02T14:24:00Z,28.4460,-96.3961,3.751,1111122 
TCOON,ioos:station:TCOON:057:1,2017-01-02T15:18:00Z,28.4460,-96.3961,3.708,1111122 
TCOON,ioos:station:TCOON:057:1,2017-01-02T16:18:00Z,28.4460,-96.3961,3.68,1111122 
TCOON,ioos:station:TCOON:057:1,2017-01-02T17:18:00Z,28.4460,-96.3961,3.671,1111122 
TCOON,ioos:station:TCOON:057:1,2017-01-02T18:18:00Z,28.4460,-96.3961,3.646,1111122 
TCOON,ioos:station:TCOON:057:1,2017-01-02T19:18:00Z,28.4460,-96.3961,3.633,1111122 
TCOON,ioos:station:TCOON:057:1,2017-01-02T20:18:00Z,28.4460,-96.3961,3.62,1111122 
TCOON,ioos:station:TCOON:057:1,2017-01-02T21:18:00Z,28.4460,-96.3961,3.602,1111122 
TCOON,ioos:station:TCOON:057:1,2017-01-02T22:18:00Z,28.4460,-96.3961,3.595,1111122 
TCOON,ioos:station:TCOON:057:1,2017-01-02T23:18:00Z,28.4460,-96.3961,3.619,1111122 
TCOON,ioos:station:TCOON:057:1,2017-01-03T00:18:00Z,28.4460,-96.3961,3.652,1111122 
TCOON,ioos:station:TCOON:057:1,2017-01-03T01:18:00Z,28.4460,-96.3961,3.675,1111122 
TCOON,ioos:station:TCOON:057:1,2017-01-03T02:18:00Z,28.4460,-96.3961,3.703,1111122 
TCOON,ioos:station:TCOON:057:1,2017-01-03T03:18:00Z,28.4460,-96.3961,3.736,1111122 
TCOON,ioos:station:TCOON:057:1,2017-01-03T04:18:00Z,28.4460,-96.3961,3.75,1111122 
TCOON,ioos:station:TCOON:057:1,2017-01-03T05:18:00Z,28.4460,-96.3961,3.775,1111122 
TCOON,ioos:station:TCOON:057:1,2017-01-03T06:24:00Z,28.4460,-96.3961,3.787,1111122 
TCOON,ioos:station:TCOON:057:1,2017-01-03T07:24:00Z,28.4460,-96.3961,3.795,1111122 
TCOON,ioos:station:TCOON:057:1,2017-01-03T08:18:00Z,28.4460,-96.3961,3.794,1111122 
TCOON,ioos:station:TCOON:057:1,2017-01-03T09:18:00Z,28.4460,-96.3961,3.795,1111122 
TCOON,ioos:station:TCOON:057:1,2017-01-03T10:18:00Z,28.4460,-96.3961,3.795,1111122 
TCOON,ioos:station:TCOON:057:1,2017-01-03T11:18:00Z,28.4460,-96.3961,3.772,1111122 
TCOON,ioos:station:TCOON:057:1,2017-01-03T12:18:00Z,28.4460,-96.3961,3.773,1111122 
TCOON,ioos:station:TCOON:057:1,2017-01-03T13:18:00Z,28.4460,-96.3961,3.743,1111122 
TCOON,ioos:station:TCOON:057:1,2017-01-03T14:18:00Z,28.4460,-96.3961,3.716,1111122 
TCOON,ioos:station:TCOON:057:1,2017-01-03T15:18:00Z,28.4460,-96.3961,3.703,1111122 
TCOON,ioos:station:TCOON:057:1,2017-01-03T16:18:00Z,28.4460,-96.3961,3.694,1111122 
TCOON,ioos:station:TCOON:057:1,2017-01-03T17:18:00Z,28.4460,-96.3961,3.671,1111122 
TCOON,ioos:station:TCOON:057:1,2017-01-03T18:18:00Z,28.4460,-96.3961,3.641,1111122 
TCOON,ioos:station:TCOON:057:1,2017-01-03T19:18:00Z,28.4460,-96.3961,3.622,1111122 
TCOON,ioos:station:TCOON:057:1,2017-01-03T20:18:00Z,28.4460,-96.3961,3.61,1111122 
TCOON,ioos:station:TCOON:057:1,2017-01-03T21:18:00Z,28.4460,-96.3961,3.627,1111122 
TCOON,ioos:station:TCOON:057:1,2017-01-03T22:18:00Z,28.4460,-96.3961,3.632,1111122 
TCOON,ioos:station:TCOON:057:1,2017-01-03T23:18:00Z,28.4460,-96.3961,3.642,1111122 
TCOON,ioos:station:TCOON:057:1,2017-01-04T00:18:00Z,28.4460,-96.3961,3.673,1111122 
TCOON,ioos:station:TCOON:057:1,2017-01-04T01:18:00Z,28.4460,-96.3961,3.695,1111122 
TCOON,ioos:station:TCOON:057:1,2017-01-04T02:18:00Z,28.4460,-96.3961,3.711,1111122 
TCOON,ioos:station:TCOON:057:1,2017-01-04T03:18:00Z,28.4460,-96.3961,3.743,1111122 
TCOON,ioos:station:TCOON:057:1,2017-01-04T05:24:00Z,28.4460,-96.3961,3.852,1111122 
TCOON,ioos:station:TCOON:057:1,2017-01-04T06:18:00Z,28.4460,-96.3961,3.804,1111122 
TCOON,ioos:station:TCOON:057:1,2017-01-04T07:18:00Z,28.4460,-96.3961,3.771,1111122 
TCOON,ioos:station:TCOON:057:1,2017-01-04T08:18:00Z,28.4460,-96.3961,3.77,1111122 
TCOON,ioos:station:TCOON:057:1,2017-01-04T09:24:00Z,28.4460,-96.3961,3.722,1111122 
TCOON,ioos:station:TCOON:057:1,2017-01-04T10:18:00Z,28.4460,-96.3961,3.717,1111122 
TCOON,ioos:station:TCOON:057:1,2017-01-04T11:18:00Z,28.4460,-96.3961,3.702,1111122 
TCOON,ioos:station:TCOON:057:1,2017-01-04T12:18:00Z,28.4460,-96.3961,3.703,1111122 
TCOON,ioos:station:TCOON:057:1,2017-01-04T13:18:00Z,28.4460,-96.3961,3.68,1111122 
TCOON,ioos:station:TCOON:057:1,2017-01-04T14:18:00Z,28.4460,-96.3961,3.661,1111122 
TCOON,ioos:station:TCOON:057:1,2017-01-04T15:18:00Z,28.4460,-96.3961,3.627,1111122 
TCOON,ioos:station:TCOON:057:1,2017-01-04T16:18:00Z,28.4460,-96.3961,3.642,1111122 
TCOON,ioos:station:TCOON:057:1,2017-01-04T17:18:00Z,28.4460,-96.3961,3.611,1111122 
TCOON,ioos:station:TCOON:057:1,2017-01-04T18:24:00Z,28.4460,-96.3961,3.601,1111122 
TCOON,ioos:station:TCOON:057:1,2017-01-04T19:18:00Z,28.4460,-96.3961,3.595,1111122 
TCOON,ioos:station:TCOON:057:1,2017-01-04T20:18:00Z,28.4460,-96.3961,3.587,1111122 
TCOON,ioos:station:TCOON:057:1,2017-01-04T21:18:00Z,28.4460,-96.3961,3.603,1111122 
TCOON,ioos:station:TCOON:057:1,2017-01-04T22:18:00Z,28.4460,-96.3961,3.638,1111122 
TCOON,ioos:station:TCOON:057:1,2017-01-04T23:18:00Z,28.4460,-96.3961,3.665,1111122 
TCOON,ioos:station:TCOON:057:1,2017-01-05T00:18:00Z,28.4460,-96.3961,3.684,1111122 
TCOON,ioos:station:TCOON:057:1,2017-01-05T01:18:00Z,28.4460,-96.3961,3.714,1111122 
TCOON,ioos:station:TCOON:057:1,2017-01-05T02:18:00Z,28.4460,-96.3961,3.746,1111122 
TCOON,ioos:station:TCOON:057:1,2017-01-05T03:24:00Z,28.4460,-96.3961,3.764,1111122 
TCOON,ioos:station:TCOON:057:1,2017-01-05T04:18:00Z,28.4460,-96.3961,3.762,1111122 
TCOON,ioos:station:TCOON:057:1,2017-01-05T05:18:00Z,28.4460,-96.3961,3.766,1111122 
TCOON,ioos:station:TCOON:057:1,2017-01-05T06:18:00Z,28.4460,-96.3961,3.763,1111122 
TCOON,ioos:station:TCOON:057:1,2017-01-05T07:18:00Z,28.4460,-96.3961,3.753,1111122 
TCOON,ioos:station:TCOON:057:1,2017-01-05T08:18:00Z,28.4460,-96.3961,3.743,1111122 
TCOON,ioos:station:TCOON:057:1,2017-01-05T09:18:00Z,28.4460,-96.3961,3.734,1111122 
TCOON,ioos:station:TCOON:057:1,2017-01-05T10:18:00Z,28.4460,-96.3961,3.726,1111122 
TCOON,ioos:station:TCOON:057:1,2017-01-05T11:18:00Z,28.4460,-96.3961,3.714,1111122 
TCOON,ioos:station:TCOON:057:1,2017-01-05T12:24:00Z,28.4460,-96.3961,3.706,1111122 
TCOON,ioos:station:TCOON:057:1,2017-01-05T13:18:00Z,28.4460,-96.3961,3.705,1111122 
TCOON,ioos:station:TCOON:057:1,2017-01-05T14:18:00Z,28.4460,-96.3961,3.701,1111122 
TCOON,ioos:station:TCOON:057:1,2017-01-05T15:18:00Z,28.4460,-96.3961,3.696,1111122 
TCOON,ioos:station:TCOON:057:1,2017-01-05T16:18:00Z,28.4460,-96.3961,3.71,1111122 
TCOON,ioos:station:TCOON:057:1,2017-01-05T17:18:00Z,28.4460,-96.3961,3.701,1111122 
TCOON,ioos:station:TCOON:057:1,2017-01-05T18:18:00Z,28.4460,-96.3961,3.697,1111122 
TCOON,ioos:station:TCOON:057:1,2017-01-05T19:18:00Z,28.4460,-96.3961,3.709,1111122 
TCOON,ioos:station:TCOON:057:1,2017-01-05T20:24:00Z,28.4460,-96.3961,3.713,1111122 
TCOON,ioos:station:TCOON:057:1,2017-01-05T21:18:00Z,28.4460,-96.3961,3.721,1111122 
TCOON,ioos:station:TCOON:057:1,2017-01-05T22:18:00Z,28.4460,-96.3961,3.709,1111122 
TCOON,ioos:station:TCOON:057:1,2017-01-05T23:18:00Z,28.4460,-96.3961,3.745,1111122 
TCOON,ioos:station:TCOON:057:1,2017-01-06T00:18:00Z,28.4460,-96.3961,3.782,1111122 
TCOON,ioos:station:TCOON:057:1,2017-01-06T01:18:00Z,28.4460,-96.3961,3.778,1111122 
TCOON,ioos:station:TCOON:057:1,2017-01-06T02:18:00Z,28.4460,-96.3961,3.767,1111122 
TCOON,ioos:station:TCOON:057:1,2017-01-06T03:18:00Z,28.4460,-96.3961,3.787,1111122 
TCOON,ioos:station:TCOON:057:1,2017-01-06T04:18:00Z,28.4460,-96.3961,3.817,1111122 
TCOON,ioos:station:TCOON:057:1,2017-01-06T05:24:00Z,28.4460,-96.3961,3.862,1111122 
TCOON,ioos:station:TCOON:057:1,2017-01-06T06:18:00Z,28.4460,-96.3961,3.825,1111122 
TCOON,ioos:station:TCOON:057:1,2017-01-06T07:18:00Z,28.4460,-96.3961,3.793,1111122 
TCOON,ioos:station:TCOON:057:1,2017-01-06T08:18:00Z,28.4460,-96.3961,3.8,1111122 
TCOON,ioos:station:TCOON:057:1,2017-01-06T09:18:00Z,28.4460,-96.3961,3.762,1111122 
TCOON,ioos:station:TCOON:057:1,2017-01-06T10:24:00Z,28.4460,-96.3961,3.751,1111122 
TCOON,ioos:station:TCOON:057:1,2017-01-06T11:18:00Z,28.4460,-96.3961,3.716,1111122 
TCOON,ioos:station:TCOON:057:1,2017-01-06T12:18:00Z,28.4460,-96.3961,3.712,1111122 
TCOON,ioos:station:TCOON:057:1,2017-01-06T13:18:00Z,28.4460,-96.3961,3.738,1111122 
TCOON,ioos:station:TCOON:057:1,2017-01-06T14:24:00Z,28.4460,-96.3961,3.667,1111122 
TCOON,ioos:station:TCOON:057:1,2017-01-06T15:18:00Z,28.4460,-96.3961,3.681,1111122 
TCOON,ioos:station:TCOON:057:1,2017-01-06T16:18:00Z,28.4460,-96.3961,3.717,1111122 
TCOON,ioos:station:TCOON:057:1,2017-01-06T17:18:00Z,28.4460,-96.3961,3.724,1111122 
TCOON,ioos:station:TCOON:057:1,2017-01-06T18:18:00Z,28.4460,-96.3961,3.711,1111122 
TCOON,ioos:station:TCOON:057:1,2017-01-06T19:24:00Z,28.4460,-96.3961,3.744,1111122 
TCOON,ioos:station:TCOON:057:1,2017-01-06T20:18:00Z,28.4460,-96.3961,3.734,1111122 
TCOON,ioos:station:TCOON:057:1,2017-01-06T21:18:00Z,28.4460,-96.3961,3.751,1111122 
TCOON,ioos:station:TCOON:057:1,2017-01-06T22:18:00Z,28.4460,-96.3961,3.758,1111122 
TCOON,ioos:station:TCOON:057:1,2017-01-07T00:18:00Z,28.4460,-96.3961,3.748,1111122 
TCOON,ioos:station:TCOON:057:1,2017-01-07T01:18:00Z,28.4460,-96.3961,3.724,1111122 
TCOON,ioos:station:TCOON:057:1,2017-01-07T02:18:00Z,28.4460,-96.3961,3.678,1111122 
TCOON,ioos:station:TCOON:057:1,2017-01-07T03:18:00Z,28.4460,-96.3961,3.737,1111122 
TCOON,ioos:station:TCOON:057:1,2017-01-07T04:18:00Z,28.4460,-96.3961,3.703,1111122 
TCOON,ioos:station:TCOON:057:1,2017-01-07T05:18:00Z,28.4460,-96.3961,3.73,1111122 
TCOON,ioos:station:TCOON:057:1,2017-01-07T06:18:00Z,28.4460,-96.3961,3.61,1111122 
TCOON,ioos:station:TCOON:057:1,2017-01-07T07:18:00Z,28.4460,-96.3961,3.622,1111122 
TCOON,ioos:station:TCOON:057:1,2017-01-07T08:18:00Z,28.4460,-96.3961,3.602,1111122 
TCOON,ioos:station:TCOON:057:1,2017-01-07T09:24:00Z,28.4460,-96.3961,3.578,1111122 
TCOON,ioos:station:TCOON:057:1,2017-01-07T10:18:00Z,28.4460,-96.3961,3.509,1111122 
TCOON,ioos:station:TCOON:057:1,2017-01-07T11:18:00Z,28.4460,-96.3961,3.515,1111122 
TCOON,ioos:station:TCOON:057:1,2017-01-07T12:18:00Z,28.4460,-96.3961,3.486,1111122 
TCOON,ioos:station:TCOON:057:1,2017-01-07T13:18:00Z,28.4460,-96.3961,3.463,1111122 
TCOON,ioos:station:TCOON:057:1,2017-01-07T14:18:00Z,28.4460,-96.3961,3.466,1111122 
TCOON,ioos:station:TCOON:057:1,2017-01-07T15:18:00Z,28.4460,-96.3961,3.47,1111122 
TCOON,ioos:station:TCOON:057:1,2017-01-07T16:18:00Z,28.4460,-96.3961,3.472,1111122 
TCOON,ioos:station:TCOON:057:1,2017-01-07T17:18:00Z,28.4460,-96.3961,3.46,1111122 
TCOON,ioos:station:TCOON:057:1,2017-01-07T18:18:00Z,28.4460,-96.3961,3.463,1111122 
TCOON,ioos:station:TCOON:057:1,2017-01-07T19:18:00Z,28.4460,-96.3961,3.475,1111122 
TCOON,ioos:station:TCOON:057:1,2017-01-07T20:18:00Z,28.4460,-96.3961,3.513,1111122 
TCOON,ioos:station:TCOON:057:1,2017-01-07T21:18:00Z,28.4460,-96.3961,3.532,1111122 
TCOON,ioos:station:TCOON:057:1,2017-01-07T22:18:00Z,28.4460,-96.3961,3.555,1111122 
TCOON,ioos:station:TCOON:057:1,2017-01-07T23:18:00Z,28.4460,-96.3961,3.53,1111122 
TCOON,ioos:station:TCOON:057:1,2017-01-08T00:18:00Z,28.4460,-96.3961,3.538,1111122 
TCOON,ioos:station:TCOON:057:1,2017-01-08T01:18:00Z,28.4460,-96.3961,3.533,1111122 
TCOON,ioos:station:TCOON:057:1,2017-01-08T02:18:00Z,28.4460,-96.3961,3.535,1111122 
TCOON,ioos:station:TCOON:057:1,2017-01-08T03:18:00Z,28.4460,-96.3961,3.545,1111122 
TCOON,ioos:station:TCOON:057:1,2017-01-08T04:18:00Z,28.4460,-96.3961,3.538,1111122 
TCOON,ioos:station:TCOON:057:1,2017-01-08T05:18:00Z,28.4460,-96.3961,3.557,1111122 
TCOON,ioos:station:TCOON:057:1,2017-01-08T06:18:00Z,28.4460,-96.3961,3.527,1111122 
TCOON,ioos:station:TCOON:057:1,2017-01-08T07:18:00Z,28.4460,-96.3961,3.481,1111122 
TCOON,ioos:station:TCOON:057:1,2017-01-08T08:18:00Z,28.4460,-96.3961,3.473,1111122 
TCOON,ioos:station:TCOON:057:1,2017-01-08T09:18:00Z,28.4460,-96.3961,3.451,1111122 
TCOON,ioos:station:TCOON:057:1,2017-01-08T10:18:00Z,28.4460,-96.3961,3.441,1111122 
TCOON,ioos:station:TCOON:057:1,2017-01-08T11:18:00Z,28.4460,-96.3961,3.414,1111122 
TCOON,ioos:station:TCOON:057:1,2017-01-08T13:54:00Z,28.4460,-96.3961,3.408,1111122 
TCOON,ioos:station:TCOON:057:1,2017-01-08T14:18:00Z,28.4460,-96.3961,3.4,1111122 
TCOON,ioos:station:TCOON:057:1,2017-01-08T15:18:00Z,28.4460,-96.3961,3.444,1111122 
TCOON,ioos:station:TCOON:057:1,2017-01-08T16:18:00Z,28.4460,-96.3961,3.483,1111122 
TCOON,ioos:station:TCOON:057:1,2017-01-08T17:18:00Z,28.4460,-96.3961,3.507,1111122 
TCOON,ioos:station:TCOON:057:1,2017-01-08T18:18:00Z,28.4460,-96.3961,3.518,1111122 
TCOON,ioos:station:TCOON:057:1,2017-01-08T19:18:00Z,28.4460,-96.3961,3.564,1111122 
TCOON,ioos:station:TCOON:057:1,2017-01-08T20:18:00Z,28.4460,-96.3961,3.629,1111122 
TCOON,ioos:station:TCOON:057:1,2017-01-08T21:18:00Z,28.4460,-96.3961,3.672,1111122 
TCOON,ioos:station:TCOON:057:1,2017-01-08T22:18:00Z,28.4460,-96.3961,3.707,1111122 
TCOON,ioos:station:TCOON:057:1,2017-01-08T23:18:00Z,28.4460,-96.3961,3.733,1111122 
TCOON,ioos:station:TCOON:057:1,2017-01-09T00:18:00Z,28.4460,-96.3961,3.754,1111122 
TCOON,ioos:station:TCOON:057:1,2017-01-09T01:18:00Z,28.4460,-96.3961,3.767,1111122 
TCOON,ioos:station:TCOON:057:1,2017-01-09T02:18:00Z,28.4460,-96.3961,3.782,1111122 
TCOON,ioos:station:TCOON:057:1,2017-01-09T03:18:00Z,28.4460,-96.3961,3.801,1111122 
TCOON,ioos:station:TCOON:057:1,2017-01-09T04:18:00Z,28.4460,-96.3961,3.829,1111122 
TCOON,ioos:station:TCOON:057:1,2017-01-09T05:18:00Z,28.4460,-96.3961,3.857,1111122 
TCOON,ioos:station:TCOON:057:1,2017-01-09T06:18:00Z,28.4460,-96.3961,3.846,1111122 
TCOON,ioos:station:TCOON:057:1,2017-01-09T07:18:00Z,28.4460,-96.3961,3.817,1111122 
TCOON,ioos:station:TCOON:057:1,2017-01-09T08:18:00Z,28.4460,-96.3961,3.785,1111122 
TCOON,ioos:station:TCOON:057:1,2017-01-09T09:18:00Z,28.4460,-96.3961,3.762,1111122 
TCOON,ioos:station:TCOON:057:1,2017-01-09T10:18:00Z,28.4460,-96.3961,3.716,1111122 
TCOON,ioos:station:TCOON:057:1,2017-01-09T11:18:00Z,28.4460,-96.3961,3.697,1111122 
TCOON,ioos:station:TCOON:057:1,2017-01-09T12:18:00Z,28.4460,-96.3961,3.666,1111122 
TCOON,ioos:station:TCOON:057:1,2017-01-09T13:18:00Z,28.4460,-96.3961,3.634,1111122 
TCOON,ioos:station:TCOON:057:1,2017-01-09T14:18:00Z,28.4460,-96.3961,3.622,1111122 
TCOON,ioos:station:TCOON:057:1,2017-01-09T15:18:00Z,28.4460,-96.3961,3.607,1111122 
TCOON,ioos:station:TCOON:057:1,2017-01-09T16:18:00Z,28.4460,-96.3961,3.612,1111122 
TCOON,ioos:station:TCOON:057:1,2017-01-09T17:18:00Z,28.4460,-96.3961,3.632,1111122 
TCOON,ioos:station:TCOON:057:1,2017-01-09T18:18:00Z,28.4460,-96.3961,3.659,1111122 
TCOON,ioos:station:TCOON:057:1,2017-01-09T19:18:00Z,28.4460,-96.3961,3.669,1111122 
TCOON,ioos:station:TCOON:057:1,2017-01-09T20:18:00Z,28.4460,-96.3961,3.708,1111122 
TCOON,ioos:station:TCOON:057:1,2017-01-09T21:18:00Z,28.4460,-96.3961,3.745,1111122 
TCOON,ioos:station:TCOON:057:1,2017-01-09T22:18:00Z,28.4460,-96.3961,3.775,1111122 
TCOON,ioos:station:TCOON:057:1,2017-01-09T23:18:00Z,28.4460,-96.3961,3.793,1111122 
TCOON,ioos:station:TCOON:057:1,2017-01-10T00:18:00Z,28.4460,-96.3961,3.806,1111122 
TCOON,ioos:station:TCOON:057:1,2017-01-10T01:18:00Z,28.4460,-96.3961,3.816,1111122 
TCOON,ioos:station:TCOON:057:1,2017-01-10T02:18:00Z,28.4460,-96.3961,3.821,1111122 
TCOON,ioos:station:TCOON:057:1,2017-01-10T03:18:00Z,28.4460,-96.3961,3.83,1111122 
TCOON,ioos:station:TCOON:057:1,2017-01-10T04:24:00Z,28.4460,-96.3961,3.84,1111122 
TCOON,ioos:station:TCOON:057:1,2017-01-10T05:18:00Z,28.4460,-96.3961,3.845,1111122 
TCOON,ioos:station:TCOON:057:1,2017-01-10T06:18:00Z,28.4460,-96.3961,3.846,1111122 
TCOON,ioos:station:TCOON:057:1,2017-01-10T07:18:00Z,28.4460,-96.3961,3.83,1111122 
TCOON,ioos:station:TCOON:057:1,2017-01-10T08:18:00Z,28.4460,-96.3961,3.801,1111122 
TCOON,ioos:station:TCOON:057:1,2017-01-10T09:18:00Z,28.4460,-96.3961,3.769,1111122 
TCOON,ioos:station:TCOON:057:1,2017-01-10T10:18:00Z,28.4460,-96.3961,3.737,1111122 
TCOON,ioos:station:TCOON:057:1,2017-01-10T11:18:00Z,28.4460,-96.3961,3.705,1111122 
TCOON,ioos:station:TCOON:057:1,2017-01-10T12:18:00Z,28.4460,-96.3961,3.671,1111122 
TCOON,ioos:station:TCOON:057:1,2017-01-10T13:18:00Z,28.4460,-96.3961,3.626,1111122 
TCOON,ioos:station:TCOON:057:1,2017-01-10T14:18:00Z,28.4460,-96.3961,3.616,1111122 
TCOON,ioos:station:TCOON:057:1,2017-01-10T15:18:00Z,28.4460,-96.3961,3.598,1111122 
TCOON,ioos:station:TCOON:057:1,2017-01-10T16:18:00Z,28.4460,-96.3961,3.592,1111122 
TCOON,ioos:station:TCOON:057:1,2017-01-10T17:18:00Z,28.4460,-96.3961,3.59,1111122 
TCOON,ioos:station:TCOON:057:1,2017-01-10T18:18:00Z,28.4460,-96.3961,3.62,1111122 
TCOON,ioos:station:TCOON:057:1,2017-01-10T19:18:00Z,28.4460,-96.3961,3.654,1111122 
TCOON,ioos:station:TCOON:057:1,2017-01-10T20:18:00Z,28.4460,-96.3961,3.69,1111122 
TCOON,ioos:station:TCOON:057:1,2017-01-10T21:18:00Z,28.4460,-96.3961,3.727,1111122 
TCOON,ioos:station:TCOON:057:1,2017-01-10T22:18:00Z,28.4460,-96.3961,3.768,1111122 
TCOON,ioos:station:TCOON:057:1,2017-01-10T23:18:00Z,28.4460,-96.3961,3.813,1111122 
TCOON,ioos:station:TCOON:057:1,2017-01-11T00:18:00Z,28.4460,-96.3961,3.831,1111122 
TCOON,ioos:station:TCOON:057:1,2017-01-11T01:18:00Z,28.4460,-96.3961,3.851,1111122 
TCOON,ioos:station:TCOON:057:1,2017-01-11T02:18:00Z,28.4460,-96.3961,3.875,1111122 
TCOON,ioos:station:TCOON:057:1,2017-01-11T03:18:00Z,28.4460,-96.3961,3.868,1111122 
TCOON,ioos:station:TCOON:057:1,2017-01-11T04:18:00Z,28.4460,-96.3961,3.853,1111122 
TCOON,ioos:station:TCOON:057:1,2017-01-11T05:18:00Z,28.4460,-96.3961,3.834,1111122 
TCOON,ioos:station:TCOON:057:1,2017-01-11T06:18:00Z,28.4460,-96.3961,3.842,1111122 
TCOON,ioos:station:TCOON:057:1,2017-01-11T07:18:00Z,28.4460,-96.3961,3.809,1111122 
TCOON,ioos:station:TCOON:057:1,2017-01-11T08:18:00Z,28.4460,-96.3961,3.78,1111122 
TCOON,ioos:station:TCOON:057:1,2017-01-11T09:18:00Z,28.4460,-96.3961,3.74,1111122 
TCOON,ioos:station:TCOON:057:1,2017-01-11T10:18:00Z,28.4460,-96.3961,3.714,1111122 
TCOON,ioos:station:TCOON:057:1,2017-01-11T11:18:00Z,28.4460,-96.3961,3.686,1111122 
TCOON,ioos:station:TCOON:057:1,2017-01-11T12:18:00Z,28.4460,-96.3961,3.635,1111122 
TCOON,ioos:station:TCOON:057:1,2017-01-11T13:18:00Z,28.4460,-96.3961,3.601,1111122 
TCOON,ioos:station:TCOON:057:1,2017-01-11T14:18:00Z,28.4460,-96.3961,3.561,1111122 
TCOON,ioos:station:TCOON:057:1,2017-01-11T15:18:00Z,28.4460,-96.3961,3.52,1111122 
TCOON,ioos:station:TCOON:057:1,2017-01-11T16:18:00Z,28.4460,-96.3961,3.503,1111122 
TCOON,ioos:station:TCOON:057:1,2017-01-11T17:18:00Z,28.4460,-96.3961,3.486,1111122 
TCOON,ioos:station:TCOON:057:1,2017-01-11T18:18:00Z,28.4460,-96.3961,3.502,1111122 
TCOON,ioos:station:TCOON:057:1,2017-01-11T19:18:00Z,28.4460,-96.3961,3.54,1111122 
TCOON,ioos:station:TCOON:057:1,2017-01-11T20:18:00Z,28.4460,-96.3961,3.57,1111122 
TCOON,ioos:station:TCOON:057:1,2017-01-11T21:18:00Z,28.4460,-96.3961,3.625,1111122 
TCOON,ioos:station:TCOON:057:1,2017-01-11T22:18:00Z,28.4460,-96.3961,3.673,1111122 
TCOON,ioos:station:TCOON:057:1,2017-01-11T23:18:00Z,28.4460,-96.3961,3.722,1111122 
TCOON,ioos:station:TCOON:057:1,2017-01-12T00:18:00Z,28.4460,-96.3961,3.754,1111122 
TCOON,ioos:station:TCOON:057:1,2017-01-12T01:18:00Z,28.4460,-96.3961,3.79,1111122 
TCOON,ioos:station:TCOON:057:1,2017-01-12T02:18:00Z,28.4460,-96.3961,3.811,1111122 
TCOON,ioos:station:TCOON:057:1,2017-01-12T03:18:00Z,28.4460,-96.3961,3.842,1111122 
TCOON,ioos:station:TCOON:057:1,2017-01-12T04:18:00Z,28.4460,-96.3961,3.853,1111122 
TCOON,ioos:station:TCOON:057:1,2017-01-12T05:18:00Z,28.4460,-96.3961,3.866,1111122 
TCOON,ioos:station:TCOON:057:1,2017-01-12T06:18:00Z,28.4460,-96.3961,3.88,1111122 
TCOON,ioos:station:TCOON:057:1,2017-01-12T07:18:00Z,28.4460,-96.3961,3.887,1111122 
TCOON,ioos:station:TCOON:057:1,2017-01-12T08:18:00Z,28.4460,-96.3961,3.887,1111122 
TCOON,ioos:station:TCOON:057:1,2017-01-12T09:18:00Z,28.4460,-96.3961,3.866,1111122 
TCOON,ioos:station:TCOON:057:1,2017-01-12T10:18:00Z,28.4460,-96.3961,3.84,1111122 
TCOON,ioos:station:TCOON:057:1,2017-01-12T11:18:00Z,28.4460,-96.3961,3.796,1111122 
TCOON,ioos:station:TCOON:057:1,2017-01-12T12:18:00Z,28.4460,-96.3961,3.763,1111122 
TCOON,ioos:station:TCOON:057:1,2017-01-12T13:18:00Z,28.4460,-96.3961,3.726,1111122 
TCOON,ioos:station:TCOON:057:1,2017-01-12T14:18:00Z,28.4460,-96.3961,3.688,1111122 
TCOON,ioos:station:TCOON:057:1,2017-01-12T15:18:00Z,28.4460,-96.3961,3.655,1111122 
TCOON,ioos:station:TCOON:057:1,2017-01-12T16:18:00Z,28.4460,-96.3961,3.619,1111122 
TCOON,ioos:station:TCOON:057:1,2017-01-12T17:18:00Z,28.4460,-96.3961,3.599,1111122 
TCOON,ioos:station:TCOON:057:1,2017-01-12T18:18:00Z,28.4460,-96.3961,3.58,1111122 
TCOON,ioos:station:TCOON:057:1,2017-01-12T19:18:00Z,28.4460,-96.3961,3.6,1111122 
TCOON,ioos:station:TCOON:057:1,2017-01-12T20:18:00Z,28.4460,-96.3961,3.634,1111122 
TCOON,ioos:station:TCOON:057:1,2017-01-12T21:18:00Z,28.4460,-96.3961,3.674,1111122 
TCOON,ioos:station:TCOON:057:1,2017-01-12T22:18:00Z,28.4460,-96.3961,3.708,1111122 
TCOON,ioos:station:TCOON:057:1,2017-01-12T23:18:00Z,28.4460,-96.3961,3.754,1111122 
TCOON,ioos:station:TCOON:057:1,2017-01-13T00:18:00Z,28.4460,-96.3961,3.783,1111122 